Voltar ao catálogo

COSMOS 2491 DEB

LostPO
NORAD 45109·DEBRIS·🇷🇺 Russia

Lançado Dec 25, 2013 de Plesetsk Cosmodrome

Loading…

Próximas Passagens (próximas 24 horas)

TLE

ObsoletoSource: Space-Track

Época: Feb 29, 2020, 01:08 UTC

1 45109U 13076Y   20060.04783337 -.00001757  00000-0 -16171-1 0  9998
2 45109  82.4270 164.7354 0138206 179.2211 180.9097 12.21968326  5657

Acompanhe COSMOS 2491 DEB em tempo real com AllMySat

Download on the App Store